Location: El Castaño
(10.3135°N, 67.5574°W)
Time: 03:06:05
(UTC+00:00)

Cosmos 1302 Rocket - Pass Details

Date: 13 June 2024
Orbit: 754 x 774 km, 74.0° (Epoch: 14 July)

Event Time Altitude Azimuth Distance (km) Brightness Sun altitude
Rises 23:16:22 0° 353° (N) 3,223 7.7 -6.2°
Reaches altitude 10° 23:18:46 10° 356° (N) 2,300 6.9 -6.8°
Maximum altitude 23:23:55 62° 77° (ENE) 864 4.1 -7.9°
Drops below altitude 10° 23:29:06 10° 157° (SSE) 2,311 6.0 -9.1°
Enters shadow 23:31:05 - 160° (SSE) 3,074 6.7 -9.5°
